Starlink 32285

operational
NORAD ID: 60355 Int'l Des: 2024-138 Owner: SPXS Country: US Constellation: starlink
LEOCIRCULAR

Starlink 32285について

説明を読み込み中...

リアルタイム位置

3D地球を読み込み中...

次回通過

高度履歴

Altitude vs Time

uPlot chart will show altitude changes over time

軌道要素

1 60355U 24138A 25260.67941114 .00001251 00000-0 54353-4 0 9998
2 60355 53.1627 32.8874 0001353 74.3446 285.7704 15.30211991 64147
Epoch: Sep 17, 2025 • Age: 24 hours

現在のステータス

高度 477.0 km
速度 7.63 km/s
衛星直下点 -4.15°S, 35.94°W
打ち上げ日 Aug 4, 2024
運用期間 1.1 years
タイプ internet

技術仕様

分類 Payload
質量 730.00 kg
乾燥質量 700.00 kg
総質量 730.00 kg
長さ 0.30 m
直径 4.10 m
スパン 29.00 m
形状 Box + pan
製造者 SPXS
バスタイプ Starlink V2M
フェーズステータス In Orbit
所有者/国 SPXS/US

大規模コンステレーション

Loading constellations...